This is the latest recevied weather packets stored in our database for station/object WX0ABE-13. If no packets are shown the sender has not sent any weather packets the latest 10 day(s).
| Time | Temp. | Humidity | Pressure | Rain* | Wind** | Luminosity | Snow |
|---|---|---|---|---|---|---|---|
| 1788222217 | 29.44° C | 32% | 1016.4 hPa | 0 mm | - | 31 W/m² | - |
| 1788221912 | 28.89° C | 34% | 1016.6 hPa | 0 mm | - | 37 W/m² | - |
| 1788221608 | 28.89° C | 33% | 1016.7 hPa | 0 mm | - | 31 W/m² | - |
| 1788221308 | 29.44° C | 32% | 1016.7 hPa | 0 mm | - | 27 W/m² | - |
| 1788220998 | 29.44° C | 31% | 1016.7 hPa | 0 mm | - | 29 W/m² | - |
| 1788220696 | 30° C | 32% | 1016.6 hPa | 0 mm | - | 33 W/m² | - |
| 1788220392 | 30° C | 30% | 1016.6 hPa | 0 mm | - | 30 W/m² | - |
| 1788220088 | 30° C | 30% | 1016.7 hPa | 0 mm | - | 36 W/m² | - |
| 1788219787 | 30° C | 29% | 1016.7 hPa | 0 mm | - | 38 W/m² | - |
| 1788219483 | 30.56° C | 28% | 1016.7 hPa | 0 mm | - | 36 W/m² | - |
| 1788219178 | 30.56° C | 28% | 1016.7 hPa | 0 mm | - | 32 W/m² | - |
| 1788218873 | 30.56° C | 28% | 1016.8 hPa | 0 mm | - | 38 W/m² | - |
| 1788218570 | 30.56° C | 27% | 1016.8 hPa | 0 mm | - | 35 W/m² | - |
| 1788218265 | 30.56° C | 27% | 1016.8 hPa | 0 mm | - | 32 W/m² | - |
| 1788217961 | 30.56° C | 27% | 1016.8 hPa | 0 mm | - | 43 W/m² | - |
| 1788217656 | 30.56° C | 27% | 1016.8 hPa | 0 mm | - | 49 W/m² | - |
| 1788217351 | 31.11° C | 26% | 1016.7 hPa | 0 mm | - | 43 W/m² | - |
| 1788217050 | 31.11° C | 26% | 1016.7 hPa | 0 mm | - | 49 W/m² | - |
| 1788216746 | 31.11° C | 25% | 1016.7 hPa | 0 mm | - | 45 W/m² | - |
| 1788216440 | 31.11° C | 25% | 1016.8 hPa | 0 mm | - | 51 W/m² | - |
| 1788216136 | 31.11° C | 26% | 1016.7 hPa | 0 mm | - | 87 W/m² | - |
| 1788215831 | 31.11° C | 25% | 1016.8 hPa | 0 mm | - | 123 W/m² | - |
| 1788215528 | 31.11° C | 26% | 1017 hPa | 0 mm | - | 133 W/m² | - |
| 1788215223 | 31.11° C | 26% | 1017.1 hPa | 0 mm | - | 143 W/m² | - |
| 1788214919 | 31.11° C | 25% | 1016.8 hPa | 0 mm | - | 159 W/m² | - |
* Rain latest hour (hover to see other rain measurements)
** Current wind speed in m/s (hover to see current wind gust speed)